Home   Weather   Helena   Past weeks

Flag for USA Past Weather in Helena, Montana, USA — Yesterday and Last 2 Weeks

Now
13 °F

Clear.


Feels Like: 13 °F
Forecast: 16 / 34 °F
Wind: No wind

Location: Helena Regional Airport

Current Time: Dec 11, 2016 at 5:12:33 am

Latest Report: Dec 11, 2016 at 3:53 am


Visibility: 10 mi

Pressure: 30.09 "Hg (25.61 "Hg at 1239m altitude)

Humidity: 81%

Dew Point: 8 °F

Location of HelenaLocation

Past Weather in Helena — Graph

°F

Helena Temperature Yesterday

Maximum temperature yesterday: 27 °F (at 7:53 pm)
Minimum temperature yesterday: 6 °F (at 5:53 am)
Average temperature yesterday: 14 °F

High & Low Weather Summary for the Past Weeks

 TemperatureHumidityPressure
High54 °F (Nov 26, 1:53 pm)89% (Dec 5, 3:53 am)30.77 "Hg (Dec 5, 3:53 am)
Low0 °F (Dec 8, 6:00 am)17% (Nov 26, 1:53 pm)29.48 "Hg (Nov 28, 2:53 am)
Average23 °F63%30.12 "Hg
* Reported Nov 26 3:53 am — Dec 11 3:53 am, Helena, Weather by CustomWeather, © 2016

Note: Actual official high and low records may vary slightly from our data, if they occured in-between our weather recording intervals... More about our weather records

Advertising

Helena Weather History for the Previous 24 Hours

Scroll right to see more
 ConditionsComfort  
Time TempWeatherWind HumidityBarometerVisibility
3:53 am
Sun, Dec 11
13 °FClear.No wind81%30.09 "Hg10 mi
2:53 am13 °FClear.7 mph84%30.09 "Hg10 mi
1:53 am16 °FClear.No wind80%30.07 "Hg10 mi
12:53 am20 °FClear.10 mph74%30.05 "Hg10 mi
11:53 pm
Sat, Dec 10
23 °FClear.8 mph68%30.04 "Hg10 mi
10:53 pm23 °FPassing clouds.No wind68%30.04 "Hg10 mi
9:53 pm25 °FClear.No wind63%30.03 "Hg10 mi
8:53 pm25 °FClear.8 mph60%30.00 "Hg10 mi
7:53 pm27 °FClear.8 mph61%29.98 "Hg10 mi
6:53 pm25 °FClear.15 mph63%29.96 "Hg10 mi
5:53 pm18 °FClear.5 mph71%29.99 "Hg10 mi
4:53 pm20 °FClear.5 mph68%29.98 "Hg10 mi
3:53 pm15 °FSunny.3 mph70%29.98 "Hg10 mi
2:53 pm16 °FPassing clouds.5 mph71%29.95 "Hg10 mi
1:53 pm15 °FBroken clouds.No wind74%29.94 "Hg9 mi
12:53 pm14 °FCloudy.3 mph73%29.92 "Hg5 mi
11:53 am12 °FMostly cloudy.5 mph73%29.94 "Hg6 mi
10:53 am13 °FSunny.No wind67%29.93 "Hg8 mi
9:53 am6 °FPassing clouds.3 mph79%29.98 "Hg8 mi
8:53 am6 °FSunny.5 mph83%30.00 "Hg9 mi
7:53 am7 °FPassing clouds.No wind83%30.01 "Hg10 mi
6:53 am7 °FOvercast.No wind79%30.03 "Hg10 mi
5:53 am6 °FOvercast.No wind83%30.08 "Hg10 mi
Weather by CustomWeather, © 2016

See weather overviewHow to use our weather pages